TimeCST,TemperatureF,Dew PointF,Humidity,Sea Level PressureIn,VisibilityMPH,Wind Direction,Wind SpeedMPH,Gust SpeedMPH,PrecipitationIn,Events,Conditions,WindDirDegrees,DateUTC
12:52 AM,57.0,37.9,49,29.97,7.0,SSE,6.9,-,N/A,,Overcast,160,2013-03-09 06:52:00
1:52 AM,57.0,37.9,49,29.96,10.0,SSE,8.1,-,N/A,,Overcast,150,2013-03-09 07:52:00
2:52 AM,57.0,36.0,45,29.94,10.0,South,9.2,-,N/A,,Overcast,170,2013-03-09 08:52:00
3:52 AM,57.0,37.0,47,29.91,10.0,South,6.9,-,0.00,,Overcast,170,2013-03-09 09:52:00
4:52 AM,55.9,37.0,49,29.90,10.0,South,8.1,-,N/A,,Overcast,170,2013-03-09 10:52:00
5:52 AM,57.0,36.0,45,29.89,10.0,South,11.5,16.1,N/A,,Overcast,170,2013-03-09 11:52:00
6:52 AM,55.9,36.0,47,29.88,10.0,SSE,12.7,18.4,N/A,,Overcast,160,2013-03-09 12:52:00
7:52 AM,57.0,37.9,49,29.86,10.0,SSE,11.5,20.7,N/A,,Overcast,160,2013-03-09 13:52:00
9:52 AM,57.9,43.0,58,29.81,10.0,South,15.0,24.2,N/A,,Partly Cloudy,170,2013-03-09 15:52:00
10:52 AM,61.0,46.0,58,29.78,10.0,South,13.8,26.5,N/A,,Mostly Cloudy,180,2013-03-09 16:52:00
11:12 AM,62.6,48.2,59,29.78,10.0,South,17.3,28.8,N/A,,Overcast,170,2013-03-09 17:12:00
11:52 AM,64.0,50.0,60,29.75,10.0,South,19.6,31.1,N/A,,Overcast,180,2013-03-09 17:52:00
12:52 PM,64.0,51.1,63,29.73,10.0,South,17.3,27.6,N/A,,Overcast,180,2013-03-09 18:52:00
1:52 PM,64.0,52.0,65,29.70,10.0,South,19.6,35.7,N/A,,Overcast,180,2013-03-09 19:52:00
2:52 PM,63.0,53.1,70,29.68,10.0,South,17.3,29.9,0.00,,Overcast,180,2013-03-09 20:52:00
3:52 PM,62.1,54.0,75,29.68,10.0,South,18.4,26.5,N/A,,Overcast,180,2013-03-09 21:52:00
4:52 PM,62.1,54.0,75,29.66,10.0,South,16.1,25.3,N/A,,Overcast,180,2013-03-09 22:52:00
5:52 PM,60.1,55.0,83,29.66,7.0,South,10.4,23.0,0.00,Rain,Light Rain,180,2013-03-09 23:52:00
6:04 PM,60.8,55.4,82,29.67,10.0,South,13.8,19.6,0.00,Rain-Thunderstorm,Light Thunderstorms and Rain,180,2013-03-10 00:04:00
6:28 PM,60.8,55.4,82,29.67,6.0,North,-9999.0,-,0.00,Rain,Light Rain,0,2013-03-10 00:28:00
6:52 PM,59.0,55.9,90,29.68,5.0,South,9.2,-,0.00,Rain,Light Rain,190,2013-03-10 00:52:00
7:17 PM,59.0,55.4,88,29.67,4.0,South,8.1,-,N/A,Rain,Light Rain,170,2013-03-10 01:17:00
7:39 PM,59.0,55.4,88,29.67,3.0,SSE,8.1,-,N/A,Rain,Rain,160,2013-03-10 01:39:00
7:50 PM,59.0,55.4,88,29.69,3.0,West,12.7,-,N/A,Rain,Light Rain,260,2013-03-10 01:50:00
7:52 PM,57.9,55.9,93,29.68,3.0,WSW,12.7,-,N/A,Rain,Rain,250,2013-03-10 01:52:00
7:58 PM,57.2,53.6,88,29.69,2.5,WSW,9.2,-,0.03,Rain,Heavy Rain,240,2013-03-10 01:58:00
8:44 PM,55.4,53.6,94,29.68,3.0,West,10.4,-,0.03,Rain,Rain,270,2013-03-10 02:44:00
8:52 PM,55.9,53.1,90,29.67,6.0,Calm,Calm,-,0.03,Rain,Light Rain,0,2013-03-10 02:52:00
9:52 PM,57.0,55.0,93,29.65,8.0,SSE,5.8,-,0.00,,Scattered Clouds,150,2013-03-10 03:52:00
10:52 PM,55.9,53.1,90,29.63,10.0,SSE,3.5,-,N/A,,Clear,160,2013-03-10 04:52:00
11:52 PM,53.1,51.1,93,29.63,10.0,South,4.6,-,N/A,,Clear,180,2013-03-10 05:52:00